Tracking 19293 objects as of 21-Nov-2018
HD Live streaming from Space Station
objects crossing your sky now

IRIDIUM 69

Track IRIDIUM 69 now!
10-day predictions
IRIDIUM 69 is classified as:


NORAD ID: 25319
Int'l Code: 1998-026A
Perigee: 767.7 km
Apogee: 771.7 km
Inclination: 86.4 °
Period: 100.1 minutes
Semi major axis: 7140 km
RCS: 4.3416 m2 (large)
Launch date: May 2, 1998
Source: United States (US)
Launch site: Taiyaun Space Center, China (TSC)
aabbcc
Your satellite tracking list
Your tracking list is empty




NASA's NSSDC Master Catalog

Two Line Element Set (TLE):
1 25319U 98026A   18324.73956916  .00000091  00000-0  23143-4 0  9996
2 25319  86.4019  26.3266 0002808  49.0509 311.0932 14.38766031 78025
Source of the keplerian elements: AFSPC